TimeCST,TemperatureF,Dew PointF,Humidity,Sea Level PressureIn,VisibilityMPH,Wind Direction,Wind SpeedMPH,Gust SpeedMPH,PrecipitationIn,Events,Conditions,WindDirDegrees,DateUTC
12:52 AM,9.0,3.9,80,30.27,-9999.0,NNW,17.3,-,N/A,,Unknown,340,2013-01-23 06:52:00
1:52 AM,8.1,1.9,76,30.27,-9999.0,NNW,16.1,-,N/A,,Unknown,340,2013-01-23 07:52:00
2:52 AM,6.1,-0.0,76,30.30,-9999.0,NNW,13.8,-,N/A,,Unknown,330,2013-01-23 08:52:00
3:52 AM,3.9,-0.9,80,30.32,-9999.0,NW,10.4,-,N/A,,Unknown,320,2013-01-23 09:52:00
4:52 AM,1.0,-4.0,79,30.35,-9999.0,NW,9.2,-,N/A,,Unknown,310,2013-01-23 10:52:00
5:52 AM,1.9,-4.0,76,30.37,-9999.0,NW,12.7,-,N/A,,Unknown,310,2013-01-23 11:52:00
6:52 AM,-0.0,-5.1,79,30.40,-9999.0,NW,11.5,-,N/A,,Unknown,320,2013-01-23 12:52:00
7:52 AM,-0.9,-7.1,75,30.44,-9999.0,NW,10.4,-,N/A,,Unknown,320,2013-01-23 13:52:00
8:52 AM,-2.9,-8.0,79,30.47,-9999.0,NNW,10.4,-,N/A,,Unknown,340,2013-01-23 14:52:00
9:52 AM,-2.0,-8.0,76,30.52,-9999.0,North,10.4,-,N/A,,Unknown,350,2013-01-23 15:52:00
10:52 AM,-0.9,-9.0,69,30.54,-9999.0,North,8.1,-,N/A,,Unknown,10,2013-01-23 16:52:00
11:52 AM,-0.9,-9.0,69,30.56,-9999.0,North,8.1,-,N/A,,Unknown,360,2013-01-23 17:52:00
12:52 PM,-2.0,-9.0,72,30.56,-9999.0,NNE,10.4,-,N/A,,Unknown,20,2013-01-23 18:52:00
1:52 PM,-0.9,-9.0,69,30.57,-9999.0,North,4.6,-,N/A,,Unknown,360,2013-01-23 19:52:00
2:52 PM,-0.9,-9.0,69,30.60,-9999.0,NNW,5.8,-,N/A,,Unknown,330,2013-01-23 20:52:00
3:52 PM,-2.0,-9.9,69,30.61,-9999.0,NNW,4.6,-,N/A,,Unknown,330,2013-01-23 21:52:00
4:52 PM,-2.9,-9.9,72,30.61,-9999.0,NE,3.5,-,N/A,,Unknown,50,2013-01-23 22:52:00
5:52 PM,-4.0,-11.0,72,30.61,-9999.0,East,6.9,-,N/A,,Unknown,80,2013-01-23 23:52:00
6:52 PM,-5.1,-11.9,72,30.60,-9999.0,East,12.7,-,N/A,,Unknown,80,2013-01-24 00:52:00
7:52 PM,-5.1,-11.0,76,30.60,-9999.0,East,10.4,-,N/A,,Unknown,100,2013-01-24 01:52:00
8:52 PM,-5.1,-9.9,80,30.61,-9999.0,ESE,10.4,-,N/A,,Unknown,120,2013-01-24 02:52:00
9:52 PM,-4.0,-9.0,79,30.60,-9999.0,SE,11.5,-,N/A,,Unknown,130,2013-01-24 03:52:00
10:52 PM,-2.9,-9.0,75,30.59,-9999.0,SE,11.5,-,N/A,,Unknown,130,2013-01-24 04:52:00
11:52 PM,-2.0,-8.0,76,30.57,-9999.0,SE,13.8,-,N/A,,Unknown,140,2013-01-24 05:52:00